QPF
0.00 0.00 0.00 0.00 0.00 0.00 0.00 0.00 0.00 0.00 0.00 0.00 0.00 0.00 0.01 0.01 0.01 0.00 0.00 0.00 0.00 0.00 0.00 0.00 0.00 0.00 0.00 0.00 0.00 0.00 0.00 0.00 0.00 0.00 0.00 0.00 0.00 0.00 0.00 0.00 0.00 0.00 0.00 0.00 0.00 0.00 0.00 0.00 0.00 0.00 0.00 0.00 0.00 0.00
0.00 0.00 0.00 0.00 0.00 0.01 0.01 0.00 0.00 0.00 0.00 0.00 0.00 0.00 0.00 0.01 0.01 0.01 0.00 0.00 0.00 0.01 0.00 0.00 0.00 0.00 0.00 0.00 0.00 0.00 0.00 0.00 0.00 0.00 0.00 0.00 0.00 0.00 0.00 0.00 0.00 0.00 0.00 0.00 0.00 0.00 0.00 0.00 0.00 0.00 0.00 0.00 0.00 0.00
0.00 0.00 0.00 0.00 0.01 0.01 0.01 0.01 0.00 0.01 0.00 0.00 0.00 0.00 0.00 0.01 0.01 0.01 0.01 0.01 0.01 0.01 0.00 0.00 0.00 0.00 0.00 0.00 0.00 0.00 0.00 0.00 0.00 0.00 0.00 0.00 0.00 0.00 0.00 0.00 0.00 0.00 0.00 0.00 0.00 0.00 0.00 0.00 0.00 0.00 0.00 0.00 0.00 0.00
0.00 0.00 0.00 0.01 0.01 0.01 0.01 0.01 0.01 0.01 0.01 0.00 0.00 0.00 0.00 0.01 0.01 0.01 0.00 0.01 0.02 0.02 0.01 0.00 0.00 0.00 0.00 0.00 0.00 0.00 0.00 0.00 0.00 0.00 0.00 0.00 0.00 0.00 0.00 0.00 0.00 0.00 0.00 0.00 0.00 0.00 0.00 0.00 0.00 0.00 0.00 0.00 0.00 0.00
0.00 0.00 0.00 0.01 0.01 0.01 0.01 0.01 0.01 0.00 0.00 0.00 0.00 0.00 0.00 0.01 0.01 0.01 0.00 0.00 0.00 0.01 0.01 0.00 0.00 0.00 0.00 0.00 0.00 0.00 0.00 0.00 0.00 0.00 0.00 0.00 0.00 0.00 0.00 0.00 0.00 0.00 0.00 0.00 0.00 0.00 0.00 0.00 0.00 0.00 0.00 0.00 0.00 0.00
0.00 0.00 0.00 0.00 0.01 0.01 0.01 0.01 0.01 0.00 0.00 0.01 0.00 0.00 0.00 0.01 0.01 0.01 0.00 0.00 0.00 0.00 0.02 0.00 0.00 0.00 0.00 0.00 0.00 0.00 0.00 0.00 0.00 0.00 0.00 0.00 0.00 0.00 0.00 0.00 0.00 0.00 0.00 0.00 0.00 0.00 0.00 0.00 0.00 0.00 0.00 0.00 0.00 0.00
0.00 0.00 0.00 0.00 0.01 0.01 0.01 0.01 0.00 0.00 0.00 0.01 0.00 0.00 0.00 0.01 0.00 0.01 0.00 0.00 0.00 0.00 0.01 0.00 0.00 0.00 0.00 0.00 0.00 0.00 0.00 0.00 0.00 0.00 0.00 0.00 0.00 0.00 0.00 0.00 0.00 0.00 0.00 0.00 0.00 0.00 0.00 0.00 0.00 0.00 0.00 0.00 0.00 0.00
0.00 0.00 0.00 0.00 0.01 0.01 0.01 0.01 0.00 0.00 0.00 0.01 0.01 0.00 0.00 0.00 0.00 0.00 0.00 0.00 0.00 0.00 0.00 0.00 0.00 0.00 0.00 0.01 0.00 0.00 0.00 0.00 0.00 0.00 0.00 0.00 0.00 0.00 0.00 0.00 0.00 0.00 0.00 0.00 0.00 0.00 0.00 0.00 0.00 0.00 0.00 0.00 0.00 0.00
0.00 0.00 0.00 0.00 0.01 0.01 0.01 0.00 0.00 0.00 0.00 0.00 0.00 0.00 0.00 0.00 0.00 0.00 0.00 0.00 0.00 0.00 0.01 0.01 0.00 0.00 0.01 0.05 0.04 0.00 0.00 0.00 0.00 0.00 0.00 0.00 0.00 0.00 0.00 0.00 0.00 0.00 0.00 0.00 0.00 0.00 0.00 0.00 0.00 0.00 0.00 0.00 0.00 0.00
0.00 0.01 0.00 0.00 0.00 0.00 0.00 0.00 0.00 0.00 0.00 0.00 0.00 0.00 0.00 0.00 0.00 0.00 0.00 0.00 0.00 0.00 0.00 0.00 0.00 0.00 0.01 0.02 0.05 0.06 0.01 0.01 0.00 0.00 0.00 0.00 0.00 0.00 0.00 0.00 0.00 0.00 0.00 0.02 0.00 0.00 0.00 0.00 0.00 0.00 0.00 0.00 0.00 0.00
0.01 0.01 0.00 0.00 0.00 0.00 0.00 0.00 0.00 0.00 0.00 0.00 0.00 0.00 0.00 0.00 0.00 0.00 0.01 0.00 0.01 0.01 0.00 0.00 0.00 0.00 0.00 0.00 0.02 0.02 0.01 0.00 0.01 0.00 0.00 0.00 0.00 0.00 0.00 0.00 0.00 0.00 0.00 0.00 0.01 0.03 0.01 0.00 0.00 0.00 0.00 0.00 0.00 0.00
0.00 0.00 0.00 0.00 0.00 0.00 0.00 0.00 0.00 0.01 0.00 0.00 0.00 0.00 0.00 0.00 0.00 0.01 0.01 0.01 0.00 0.00 0.00 0.01 0.01 0.00 0.00 0.01 0.02 0.01 0.00 0.00 0.00 0.00 0.01 0.00 0.00 0.00 0.00 0.00 0.00 0.00 0.00 0.00 0.00 0.01 0.00 0.01 0.00 0.00 0.00 0.00 0.00 0.00
0.01 0.00 0.00 0.00 0.00 0.00 0.00 0.00 0.00 0.00 0.00 0.00 0.00 0.00 0.00 0.00 0.01 0.00 0.00 0.01 0.02 0.01 0.03 0.02 0.01 0.00 0.00 0.02 0.01 0.00 0.00 0.00 0.00 0.00 0.00 0.00 0.01 0.00 0.00 0.00 0.00 0.00 0.00 0.00 0.00 0.00 0.00 0.00 0.00 0.00 0.00 0.00 0.00 0.00
0.01 0.00 0.00 0.00 0.00 0.00 0.01 0.00 0.00 0.00 0.00 0.00 0.00 0.00 0.00 0.00 0.00 0.00 0.00 0.01 0.01 0.00 0.01 0.00 0.01 0.05 0.02 0.01 0.01 0.00 0.00 0.00 0.01 0.00 0.00 0.00 0.00 0.00 0.00 0.00 0.00 0.00 0.00 0.00 0.00 0.00 0.00 0.00 0.00 0.00 0.00 0.00 0.00 0.00
0.00 0.00 0.00 0.00 0.00 0.00 0.00 0.00 0.00 0.00 0.00 0.00 0.00 0.00 0.00 0.00 0.00 0.00 0.00 0.01 0.01 0.00 0.00 0.00 0.03 0.02 0.01 0.00 0.00 0.00 0.01 0.00 0.00 0.00 0.01 0.04 0.03 0.01 0.01 0.00 0.00 0.00 0.00 0.00 0.00 0.00 0.00 0.00 0.00 0.00 0.00 0.00 0.00 0.00
0.00 0.00 0.00 0.00 0.00 0.00 0.00 0.00 0.00 0.00 0.00 0.00 0.00 0.00 0.00 0.00 0.00 0.00 0.00 0.00 0.01 0.02 0.00 0.00 0.02 0.00 0.01 0.00 0.00 0.00 0.00 0.01 0.02 0.04 0.03 0.03 0.04 0.02 0.02 0.03 0.05 0.01 0.00 0.00 0.00 0.00 0.00 0.00 0.00 0.00 0.00 0.00 0.00 0.00
0.00 0.00 0.00 0.00 0.00 0.00 0.00 0.00 0.00 0.00 0.00 0.00 0.00 0.00 0.00 0.00 0.00 0.00 0.00 0.00 0.01 0.01 0.01 0.01 0.00 0.00 0.00 0.00 0.00 0.01 0.01 0.02 0.02 0.02 0.01 0.01 0.01 0.00 0.01 0.02 0.07 0.14 0.06 0.00 0.00 0.00 0.00 0.00 0.00 0.00 0.00 0.00 0.00 0.00
0.00 0.00 0.00 0.00 0.00 0.00 0.00 0.00 0.00 0.01 0.00 0.00 0.00 0.00 0.00 0.00 0.00 0.00 0.00 0.00 0.00 0.00 0.00 0.00 0.00 0.00 0.00 0.00 0.00 0.02 0.01 0.00 0.00 0.00 0.00 0.02 0.06 0.04 0.02 0.01 0.01 0.03 0.04 0.04 0.02 0.00 0.00 0.00 0.00 0.00 0.00 0.00 0.00 0.00
0.00 0.00 0.00 0.00 0.00 0.00 0.00 0.00 0.00 0.00 0.00 0.00 0.00 0.00 0.00 0.00 0.00 0.00 0.00 0.00 0.00 0.00 0.00 0.00 0.00 0.00 0.00 0.00 0.00 0.00 0.00 0.00 0.00 0.00 0.00 0.00 0.02 0.01 0.00 0.00 0.00 0.00 0.00 0.01 0.03 0.03 0.02 0.00 0.00 0.00 0.00 0.00 0.00 0.00
0.00 0.00 0.00 0.00 0.01 0.00 0.01 0.00 0.00 0.00 0.00 0.00 0.00 0.00 0.00 0.00 0.00 0.00 0.00 0.00 0.00 0.00 0.00 0.00 0.00 0.00 0.00 0.00 0.00 0.00 0.00 0.00 0.00 0.00 0.00 0.00 0.00 0.00 0.00 0.00 0.00 0.00 0.00 0.00 0.00 0.00 0.00 0.01 0.00 0.00 0.00 0.00 0.00 0.00
0.00 0.00 0.00 0.00 0.00 0.00 0.01 0.01 0.00 0.00 0.00 0.00 0.00 0.00 0.00 0.00 0.00 0.00 0.00 0.00 0.00 0.00 0.00 0.00 0.00 0.00 0.00 0.00 0.00 0.00 0.00 0.00 0.00 0.00 0.00 0.00 0.00 0.00 0.00 0.00 0.00 0.00 0.00 0.00 0.00 0.00 0.00 0.00 0.00 0.00 0.00 0.00 0.00 0.00
0.00 0.01 0.00 0.00 0.00 0.00 0.00 0.00 0.00 0.00 0.00 0.00 0.00 0.00 0.00 0.00 0.00 0.00 0.00 0.00 0.00 0.00 0.00 0.00 0.00 0.00 0.00 0.00 0.00 0.00 0.00 0.00 0.00 0.00 0.00 0.00 0.00 0.00 0.00 0.00 0.00 0.00 0.00 0.00 0.00 0.00 0.00 0.00 0.00 0.00 0.00 0.00 0.00 0.00
0.00 0.01 0.01 0.00 0.01 0.00 0.00 0.00 0.00 0.00 0.00 0.00 0.00 0.00 0.00 0.00 0.00 0.00 0.00 0.00 0.00 0.00 0.00 0.00 0.00 0.00 0.00 0.00 0.00 0.00 0.00 0.00 0.00 0.00 0.00 0.00 0.00 0.00 0.00 0.00 0.00 0.00 0.00 0.00 0.00 0.00 0.00 0.00 0.00 0.00 0.00 0.00 0.00 0.00
0.00 0.00 0.01 0.01 0.00 0.00 0.00 0.00 0.00 0.00 0.00 0.00 0.00 0.01 0.01 0.00 0.00 0.00 0.00 0.00 0.00 0.00 0.00 0.00 0.00 0.01 0.00 0.00 0.00 0.00 0.01 0.01 0.00 0.00 0.00 0.00 0.00 0.00 0.00 0.00 0.00 0.00 0.00 0.00 0.00 0.00 0.00 0.00 0.00 0.00 0.00 0.00 0.00 0.00
0.00 0.00 0.00 0.00 0.00 0.00 0.00 0.00 0.00 0.00 0.00 0.00 0.01 0.01 0.01 0.01 0.01 0.01 0.00 0.00 0.00 0.00 0.00 0.00 0.01 0.01 0.02 0.01 0.01 0.01 0.00 0.00 0.00 0.00 0.00 0.00 0.00 0.00 0.00 0.00 0.00 0.00 0.00 0.00 0.00 0.00 0.00 0.00 0.00 0.00 0.00 0.00 0.00 0.00
0.00 0.00 0.00 0.00 0.00 0.00 0.01 0.01 0.01 0.01 0.01 0.02 0.02 0.02 0.02 0.01 0.01 0.01 0.00 0.00 0.02 0.05 0.02 0.01 0.03 0.01 0.01 0.01 0.03 0.01 0.00 0.00 0.00 0.00 0.00 0.00 0.00 0.00 0.00 0.00 0.00 0.00 0.00 0.00 0.00 0.00 0.00 0.00 0.00 0.00 0.00 0.00 0.00 0.00
0.00 0.00 0.00 0.00 0.00 0.00 0.00 0.00 0.00 0.01 0.01 0.02 0.01 0.01 0.00 0.00 0.00 0.01 0.00 0.01 0.03 0.05 0.03 0.00 0.00 0.00 0.00 0.01 0.03 0.04 0.06 0.04 0.01 0.01 0.00 0.00 0.00 0.00 0.00 0.00 0.00 0.00 0.00 0.00 0.00 0.00 0.00 0.00 0.00 0.00 0.00 0.00 0.00 0.00
0.00 0.00 0.00 0.00 0.00 0.00 0.00 0.00 0.01 0.02 0.02 0.01 0.02 0.02 0.00 0.00 0.01 0.00 0.01 0.02 0.04 0.08 0.02 0.00 0.00 0.00 0.00 0.00 0.01 0.04 0.06 0.02 0.00 0.00 0.00 0.00 0.00 0.00 0.00 0.00 0.00 0.00 0.00 0.00 0.00 0.00 0.00 0.00 0.00 0.00 0.00 0.00 0.00 0.00
0.00 0.00 0.00 0.00 0.00 0.00 0.00 0.01 0.01 0.01 0.01 0.01 0.02 0.01 0.00 0.00 0.00 0.00 0.01 0.03 0.06 0.04 0.01 0.00 0.00 0.00 0.00 0.00 0.00 0.00 0.03 0.06 0.01 0.00 0.00 0.00 0.00 0.00 0.00 0.00 0.00 0.00 0.00 0.00 0.00 0.00 0.00 0.00 0.00 0.00 0.00 0.00 0.00 0.00
0.00 0.00 0.00 0.00 0.01 0.01 0.00 0.00 0.00 0.00 0.00 0.00 0.00 0.00 0.00 0.00 0.00 0.00 0.01 0.04 0.02 0.00 0.00 0.00 0.00 0.00 0.00 0.00 0.00 0.00 0.00 0.00 0.00 0.00 0.00 0.00 0.00 0.00 0.00 0.00 0.00 0.00 0.00 0.00 0.00 0.00 0.00 0.00 0.00 0.00 0.00 0.00 0.00 0.00
0.00 0.01 0.01 0.01 0.01 0.00 0.00 0.00 0.01 0.00 0.00 0.00 0.00 0.00 0.00 0.00 0.01 0.02 0.03 0.00 0.00 0.00 0.00 0.00 0.00 0.00 0.00 0.00 0.00 0.00 0.00 0.00 0.00 0.00 0.00 0.00 0.00 0.00 0.00 0.00 0.00 0.00 0.00 0.00 0.00 0.00 0.00 0.00 0.00 0.00 0.00 0.00 0.00 0.00
0.00 0.00 0.01 0.01 0.01 0.02 0.02 0.01 0.01 0.01 0.00 0.00 0.00 0.00 0.00 0.00 0.00 0.00 0.00 0.00 0.00 0.00 0.00 0.00 0.00 0.00 0.00 0.00 0.00 0.00 0.00 0.00 0.00 0.00 0.00 0.00 0.00 0.00 0.00 0.00 0.00 0.00 0.00 0.00 0.00 0.00 0.00 0.00 0.00 0.00 0.00 0.00 0.00 0.00
0.00 0.00 0.00 0.00 0.01 0.02 0.01 0.00 0.00 0.00 0.00 0.00 0.00 0.00 0.00 0.00 0.00 0.00 0.00 0.00 0.00 0.00 0.00 0.00 0.00 0.00 0.00 0.00 0.00 0.00 0.00 0.00 0.00 0.00 0.00 0.00 0.00 0.00 0.00 0.00 0.00 0.00 0.00 0.00 0.00 0.00 0.00 0.00 0.00 0.00 0.00 0.00 0.00 0.00
MSLP
1020.96 1020.72 1020.44 1020.10 1019.81 1019.73 1019.68 1019.45 1019.30 1019.04 1018.71 1018.52 1018.34 1018.21 1018.07 1017.78 1017.64 1017.75 1017.51 1017.26 1017.36 1016.58 1015.05 1014.51 1014.34 1014.23 1014.33 1014.30 1013.83 1012.70 1011.89 1011.06 1010.62 1010.29 1009.83 1008.67 1008.51 1007.45 1006.63 1005.56 1005.78 1006.77 1007.83 1009.15 1009.51 1009.07 1008.04 1006.75 1007.48 1007.57 1006.93 1007.13 1007.31 1008.05
1020.61 1020.42 1020.16 1019.83 1019.52 1019.40 1019.26 1019.11 1018.95 1018.69 1018.53 1018.21 1017.95 1017.89 1017.79 1017.63 1017.45 1017.42 1017.50 1016.79 1016.66 1016.49 1014.86 1013.81 1013.46 1013.24 1013.22 1013.36 1013.26 1013.09 1012.82 1012.36 1011.41 1011.08 1010.25 1009.73 1008.81 1007.77 1007.63 1006.42 1005.60 1005.75 1005.62 1007.02 1007.60 1007.18 1006.28 1005.95 1005.92 1006.15 1006.53 1007.25 1007.93 1008.38
1020.31 1020.08 1019.80 1019.43 1019.17 1019.04 1018.93 1018.79 1018.65 1018.44 1018.27 1017.97 1017.66 1017.60 1017.48 1017.29 1017.10 1017.24 1017.23 1016.92 1016.57 1015.91 1014.13 1013.40 1012.03 1011.53 1011.60 1011.78 1012.20 1013.23 1012.44 1011.80 1011.43 1011.52 1011.09 1009.82 1008.74 1007.95 1007.57 1006.38 1005.20 1005.08 1005.05 1005.90 1006.70 1006.53 1006.28 1006.11 1006.17 1006.55 1006.94 1007.53 1008.05 1008.38
1019.96 1019.82 1019.54 1019.20 1018.85 1018.70 1018.56 1018.43 1018.36 1018.15 1017.96 1017.71 1017.40 1017.20 1017.10 1016.94 1016.74 1016.82 1016.98 1016.60 1016.68 1015.94 1014.79 1012.30 1011.05 1010.94 1010.42 1010.76 1011.08 1011.31 1011.39 1011.24 1011.51 1011.35 1011.15 1010.20 1008.96 1007.86 1008.25 1007.12 1005.59 1004.90 1005.00 1005.57 1006.37 1006.35 1006.25 1006.17 1006.42 1006.89 1007.48 1007.83 1008.24 1008.70
1019.68 1019.46 1019.22 1018.95 1018.71 1018.53 1018.32 1018.11 1018.03 1017.86 1017.63 1017.42 1017.09 1016.82 1016.69 1016.58 1016.39 1016.39 1016.27 1015.88 1015.75 1016.18 1014.87 1012.76 1011.22 1009.83 1009.64 1010.10 1010.32 1010.81 1011.43 1012.04 1012.06 1011.85 1011.35 1009.92 1008.45 1007.86 1007.78 1006.72 1005.67 1004.88 1004.89 1005.13 1005.18 1004.79 1005.10 1005.49 1005.96 1006.82 1007.59 1008.10 1008.42 1008.86
1019.36 1019.16 1018.90 1018.61 1018.33 1018.17 1018.03 1017.83 1017.68 1017.46 1017.31 1017.05 1016.68 1016.45 1016.34 1016.25 1016.18 1016.15 1015.73 1015.18 1015.02 1015.36 1015.15 1013.39 1011.19 1009.97 1009.67 1009.58 1009.88 1010.72 1011.51 1012.00 1012.15 1011.78 1011.06 1009.51 1008.45 1008.44 1008.39 1007.04 1005.03 1004.49 1004.21 1004.43 1004.23 1004.50 1005.19 1005.37 1006.01 1006.68 1007.45 1008.00 1008.48 1008.88
1018.90 1018.75 1018.61 1018.36 1018.07 1017.89 1017.69 1017.47 1017.32 1017.19 1016.96 1016.63 1016.30 1016.09 1016.04 1016.04 1016.12 1016.12 1015.52 1015.10 1014.98 1015.15 1014.67 1013.60 1012.00 1010.13 1009.55 1009.54 1009.85 1010.79 1011.40 1011.48 1011.57 1011.51 1010.74 1009.75 1008.61 1007.73 1007.54 1006.49 1004.65 1003.71 1003.50 1003.71 1004.52 1004.68 1005.57 1005.61 1006.31 1006.94 1007.22 1007.79 1008.40 1008.82
1018.39 1018.26 1018.16 1017.97 1017.71 1017.55 1017.33 1017.16 1017.03 1016.88 1016.67 1016.32 1016.01 1015.80 1015.72 1015.77 1015.78 1015.49 1014.27 1014.06 1014.67 1015.15 1014.67 1013.94 1012.11 1010.78 1009.43 1009.38 1009.79 1009.97 1010.75 1011.07 1011.22 1010.94 1010.31 1009.62 1008.41 1008.00 1007.30 1005.36 1004.45 1003.97 1003.60 1004.12 1004.85 1004.67 1004.26 1005.08 1006.22 1007.07 1007.21 1007.73 1008.45 1008.99
1017.80 1017.69 1017.62 1017.46 1017.25 1017.13 1017.04 1016.91 1016.73 1016.60 1016.41 1016.05 1015.75 1015.61 1015.67 1015.61 1015.23 1014.32 1013.79 1013.85 1014.20 1014.70 1014.17 1013.56 1012.76 1011.41 1010.00 1009.67 1009.41 1009.56 1009.82 1010.57 1010.52 1010.52 1010.13 1009.88 1009.00 1007.93 1006.23 1005.50 1004.83 1004.47 1004.81 1004.59 1005.40 1004.83 1004.73 1005.36 1006.25 1006.86 1007.31 1007.86 1008.34 1008.90
1017.35 1017.15 1016.97 1016.90 1016.78 1016.71 1016.65 1016.53 1016.42 1016.34 1016.13 1015.86 1015.77 1015.72 1015.13 1014.43 1013.97 1014.01 1013.92 1013.85 1014.10 1013.73 1013.73 1013.20 1012.50 1012.11 1011.20 1010.00 1009.55 1009.61 1009.23 1009.48 1009.84 1009.45 1009.57 1009.36 1008.08 1005.93 1004.73 1004.81 1005.01 1004.87 1004.61 1004.83 1005.05 1005.25 1005.44 1005.83 1006.34 1006.53 1006.90 1007.39 1007.84 1008.33
1016.87 1016.68 1016.51 1016.37 1016.25 1016.27 1016.25 1016.24 1016.17 1016.07 1015.83 1015.85 1015.65 1015.23 1014.36 1013.83 1013.56 1013.72 1013.53 1013.59 1013.41 1013.29 1012.84 1012.17 1012.08 1011.91 1010.97 1010.71 1009.98 1009.58 1009.36 1009.27 1009.06 1008.96 1008.81 1008.50 1007.12 1005.03 1003.67 1003.92 1003.99 1004.34 1004.54 1004.58 1004.56 1004.71 1004.67 1004.62 1005.52 1006.17 1006.72 1007.17 1007.68 1008.30
1016.41 1016.07 1015.83 1015.79 1015.77 1015.86 1015.90 1015.86 1015.74 1015.89 1015.62 1015.65 1015.56 1015.13 1014.76 1014.22 1013.81 1013.75 1013.02 1012.72 1012.54 1011.98 1011.65 1011.58 1011.14 1011.41 1010.93 1010.47 1010.13 1009.67 1009.29 1009.15 1008.72 1008.28 1008.01 1007.17 1005.24 1003.67 1003.20 1003.26 1003.28 1003.68 1003.90 1004.07 1003.91 1004.02 1004.02 1004.62 1005.12 1005.35 1005.91 1006.59 1007.17 1007.81
1016.00 1015.53 1015.23 1015.33 1015.46 1015.57 1015.57 1015.43 1015.41 1015.50 1015.43 1015.44 1015.43 1015.07 1014.60 1014.34 1013.78 1013.12 1012.37 1011.72 1011.40 1011.03 1010.80 1010.79 1010.68 1010.51 1010.50 1010.32 1009.94 1009.72 1009.37 1008.88 1008.37 1008.20 1007.45 1006.01 1004.09 1003.75 1003.47 1003.26 1003.40 1003.42 1003.47 1003.49 1003.59 1003.56 1003.43 1003.80 1004.56 1005.16 1005.52 1006.13 1006.83 1007.54
1015.76 1015.48 1015.36 1015.34 1015.34 1015.38 1015.31 1015.31 1015.42 1015.54 1015.66 1015.49 1015.13 1014.79 1014.31 1013.56 1012.77 1011.91 1011.68 1011.35 1010.87 1010.76 1010.84 1010.69 1010.33 1009.98 1009.85 1009.87 1009.71 1009.46 1008.99 1008.59 1008.10 1007.69 1007.11 1006.01 1005.32 1004.49 1003.76 1003.85 1003.51 1003.27 1003.30 1003.23 1003.20 1003.22 1003.34 1003.69 1003.95 1004.38 1004.98 1005.65 1006.34 1007.07
1015.64 1015.50 1015.37 1015.18 1015.13 1015.20 1015.29 1015.33 1015.42 1015.59 1015.61 1015.44 1014.97 1014.26 1013.53 1012.76 1012.25 1011.67 1011.33 1010.98 1010.61 1010.44 1010.46 1010.41 1010.15 1010.12 1009.79 1009.72 1009.47 1009.27 1008.88 1008.37 1007.81 1007.13 1006.67 1006.37 1005.74 1005.14 1004.46 1003.63 1003.11 1003.19 1003.16 1003.27 1002.99 1002.99 1003.12 1003.45 1003.73 1004.16 1004.57 1005.03 1005.53 1006.33
1015.50 1015.37 1015.22 1015.06 1015.04 1015.16 1015.29 1015.36 1015.47 1015.59 1015.45 1015.22 1014.68 1013.93 1013.10 1012.84 1012.10 1011.63 1011.23 1010.81 1010.30 1009.86 1010.06 1010.21 1010.01 1009.92 1009.74 1009.52 1009.39 1008.73 1008.27 1007.57 1007.34 1007.10 1006.72 1005.98 1005.70 1005.36 1004.91 1004.38 1004.00 1003.40 1002.75 1002.87 1002.98 1002.85 1002.83 1003.09 1003.46 1003.60 1004.11 1004.67 1005.09 1005.42
1015.46 1015.29 1014.98 1014.90 1015.00 1015.20 1015.35 1015.43 1015.49 1015.48 1015.18 1014.63 1014.01 1013.38 1013.11 1012.79 1012.28 1011.70 1011.14 1010.39 1010.04 1010.09 1009.75 1009.71 1009.69 1009.48 1009.55 1009.31 1008.83 1008.10 1007.73 1007.27 1006.80 1006.64 1006.45 1006.20 1005.78 1005.36 1004.99 1004.57 1003.87 1003.30 1003.45 1003.30 1003.16 1003.19 1003.02 1003.18 1003.47 1003.81 1004.32 1004.28 1004.50 1004.64
1015.40 1015.02 1014.86 1014.95 1015.12 1015.17 1015.34 1015.33 1015.38 1015.08 1014.61 1013.89 1013.73 1012.88 1012.58 1012.14 1011.58 1011.10 1010.53 1010.04 1010.04 1009.82 1009.85 1009.45 1009.25 1009.41 1009.29 1008.87 1008.37 1007.81 1007.32 1006.87 1006.52 1006.17 1006.07 1005.92 1005.59 1005.18 1004.72 1003.98 1003.60 1003.55 1004.14 1004.11 1003.84 1003.25 1003.08 1003.22 1003.61 1003.78 1003.66 1003.67 1004.17 1004.39
1015.38 1015.24 1015.13 1015.10 1015.10 1015.07 1015.19 1015.20 1015.11 1014.64 1013.73 1013.30 1012.74 1012.34 1011.97 1011.31 1010.53 1009.99 1009.72 1009.49 1009.41 1009.43 1009.46 1009.33 1009.33 1009.18 1008.80 1008.26 1007.97 1007.49 1007.22 1007.00 1006.78 1006.49 1006.03 1005.53 1005.50 1005.35 1005.00 1004.80 1004.78 1004.66 1004.24 1003.87 1003.44 1003.04 1003.02 1003.13 1002.96 1002.88 1003.05 1003.32 1003.44 1003.60
1015.13 1015.08 1015.10 1015.10 1015.25 1014.98 1014.97 1014.74 1014.63 1014.38 1013.55 1012.71 1012.20 1011.72 1011.30 1010.50 1009.64 1009.17 1009.05 1009.08 1009.26 1009.22 1009.24 1009.01 1008.61 1008.12 1007.77 1007.32 1007.09 1006.98 1006.78 1006.61 1006.72 1006.51 1006.06 1005.47 1005.28 1005.29 1005.13 1004.92 1004.64 1004.38 1004.19 1003.82 1003.47 1003.31 1003.29 1003.10 1002.87 1002.66 1002.63 1002.64 1002.93 1002.97
1015.08 1014.88 1014.96 1015.02 1015.20 1015.17 1014.85 1014.33 1014.02 1013.55 1012.67 1012.20 1011.22 1011.01 1010.28 1009.66 1009.34 1008.96 1008.80 1008.71 1009.18 1008.89 1008.62 1007.96 1007.55 1007.04 1006.93 1006.48 1006.12 1006.19 1006.12 1006.12 1006.06 1006.09 1005.90 1005.78 1005.24 1005.24 1005.14 1004.98 1004.86 1004.81 1004.55 1004.18 1003.90 1003.63 1003.56 1003.28 1002.77 1002.71 1002.53 1002.39 1002.46 1002.53
1014.81 1014.73 1014.90 1015.15 1014.95 1014.82 1014.65 1014.11 1013.87 1013.11 1012.63 1011.39 1010.91 1010.21 1009.81 1009.34 1008.88 1008.60 1008.57 1008.64 1008.36 1007.54 1007.11 1006.79 1006.47 1006.23 1006.28 1006.07 1005.84 1005.62 1005.42 1005.41 1005.31 1005.37 1005.42 1005.43 1005.29 1005.29 1005.23 1005.20 1005.10 1005.06 1004.87 1004.62 1004.39 1004.19 1003.81 1003.49 1003.29 1003.06 1002.80 1002.71 1002.78 1002.84
1014.70 1014.65 1014.72 1014.81 1014.93 1014.51 1014.02 1013.76 1013.55 1012.42 1011.80 1010.72 1010.05 1009.69 1009.17 1008.77 1008.35 1008.22 1008.17 1007.75 1007.16 1006.37 1006.13 1006.00 1005.71 1005.47 1005.50 1005.13 1005.04 1004.90 1004.88 1004.93 1005.09 1005.22 1005.24 1005.25 1005.31 1005.27 1005.26 1005.13 1004.96 1004.88 1004.68 1004.40 1004.33 1004.20 1003.99 1003.76 1003.63 1003.72 1003.57 1003.31 1003.32 1003.53
1014.56 1014.48 1014.37 1014.44 1014.44 1013.99 1013.47 1013.02 1012.25 1011.52 1010.70 1010.20 1009.63 1008.93 1008.48 1008.21 1007.94 1007.87 1007.72 1007.08 1006.38 1006.00 1005.84 1005.62 1005.49 1005.35 1005.11 1004.94 1004.86 1004.93 1005.05 1005.11 1005.21 1005.11 1005.12 1005.13 1005.21 1005.25 1005.15 1004.99 1004.89 1004.78 1004.62 1004.46 1004.27 1004.05 1003.91 1003.83 1004.00 1003.91 1003.97 1004.02 1003.91 1003.95
1014.92 1014.68 1014.69 1014.10 1013.74 1013.55 1012.80 1011.88 1011.04 1010.54 1009.92 1009.27 1008.84 1008.42 1008.17 1008.02 1007.76 1007.22 1007.00 1006.51 1006.12 1005.83 1005.60 1005.49 1005.28 1005.19 1005.16 1005.05 1005.20 1005.21 1005.05 1005.03 1005.09 1005.30 1005.27 1005.20 1005.14 1005.03 1005.07 1005.01 1004.97 1004.90 1004.83 1004.72 1004.48 1004.17 1003.90 1003.81 1003.90 1003.98 1004.11 1004.20 1004.17 1004.19
1014.52 1014.03 1014.08 1013.23 1012.81 1012.55 1011.55 1010.76 1009.99 1009.70 1009.41 1008.87 1008.15 1007.71 1007.40 1007.41 1007.08 1006.63 1006.44 1006.13 1005.92 1005.68 1005.44 1005.42 1005.40 1005.34 1005.34 1005.36 1005.32 1005.35 1005.40 1005.26 1005.05 1005.17 1005.28 1005.19 1005.17 1005.26 1005.38 1005.33 1005.22 1005.19 1005.03 1004.86 1004.62 1004.44 1004.22 1004.15 1004.27 1004.28 1004.22 1004.44 1004.50 1004.51
1013.93 1013.31 1012.95 1012.47 1012.19 1011.80 1011.11 1010.16 1009.69 1009.39 1008.83 1008.21 1007.89 1007.37 1007.03 1006.84 1006.44 1006.23 1005.96 1005.79 1005.71 1005.34 1005.23 1005.25 1005.22 1005.36 1005.37 1005.35 1005.37 1005.31 1005.23 1005.13 1005.09 1005.15 1005.17 1005.13 1005.17 1005.26 1005.43 1005.46 1005.35 1005.31 1005.06 1004.85 1004.62 1004.40 1004.42 1004.49 1004.53 1004.57 1004.67 1004.82 1004.87 1004.78
1013.35 1012.74 1012.35 1011.73 1011.54 1011.06 1010.56 1009.86 1009.31 1008.73 1008.30 1007.93 1007.57 1006.97 1006.70 1006.26 1006.01 1005.80 1005.66 1005.49 1005.44 1005.45 1005.64 1005.63 1005.47 1005.35 1005.34 1005.34 1005.37 1005.35 1005.32 1005.32 1005.30 1005.37 1005.42 1005.51 1005.55 1005.55 1005.46 1005.40 1005.29 1005.29 1005.07 1005.10 1005.06 1004.86 1004.85 1004.84 1004.87 1004.98 1004.99 1004.98 1005.06 1004.91
1012.61 1011.86 1011.58 1010.89 1010.52 1010.08 1009.54 1009.24 1008.63 1008.29 1008.12 1007.27 1006.65 1006.44 1006.17 1005.65 1005.31 1005.31 1005.48 1005.39 1005.56 1005.74 1005.80 1005.71 1005.54 1005.46 1005.54 1005.47 1005.42 1005.43 1005.52 1005.61 1005.57 1005.99 1006.38 1006.43 1006.20 1005.93 1006.05 1005.91 1005.55 1005.28 1005.08 1004.95 1005.13 1005.06 1005.12 1005.10 1005.06 1004.95 1004.94 1005.08 1005.22 1005.23
1011.47 1011.02 1010.70 1010.11 1009.71 1008.89 1008.38 1008.13 1007.93 1007.71 1007.48 1007.09 1006.82 1006.27 1005.74 1005.51 1005.44 1005.44 1005.47 1005.73 1006.00 1006.16 1006.08 1005.99 1006.08 1006.11 1006.36 1006.24 1006.49 1006.53 1006.53 1006.37 1006.31 1006.66 1007.08 1007.24 1007.28 1006.93 1006.34 1005.97 1005.86 1005.78 1005.59 1005.49 1005.55 1005.59 1005.36 1005.18 1005.35 1005.39 1005.48 1005.54 1005.59 1005.61
1010.58 1010.36 1010.08 1009.64 1008.87 1008.18 1008.09 1007.94 1007.61 1007.53 1007.09 1006.78 1006.43 1006.38 1006.21 1006.09 1005.83 1005.85 1005.95 1006.06 1006.17 1006.38 1006.40 1006.57 1006.84 1007.15 1007.13 1007.21 1007.35 1007.47 1007.87 1007.97 1007.84 1007.75 1007.82 1007.79 1007.65 1007.38 1007.06 1006.76 1006.55 1006.35 1006.18 1006.12 1006.19 1006.18 1006.16 1006.11 1006.07 1005.96 1005.91 1005.99 1006.05 1006.09
1009.87 1009.63 1009.47 1009.28 1008.47 1007.71 1007.44 1007.26 1007.24 1007.26 1007.06 1006.97 1006.89 1006.49 1006.43 1006.13 1006.57 1006.37 1006.24 1006.38 1006.56 1006.77 1006.99 1007.08 1007.19 1007.61 1007.69 1007.78 1007.89 1008.08 1008.30 1008.57 1008.54 1008.46 1008.34 1008.31 1008.35 1008.24 1007.97 1007.71 1007.50 1007.33 1007.22 1007.23 1007.28 1007.30 1007.25 1007.20 1007.22 1007.23 1007.21 1007.18 1007.16 1007.03
1009.12 1009.08 1008.97 1008.54 1007.86 1007.61 1007.58 1007.42 1007.20 1006.98 1006.81 1006.88 1007.01 1007.19 1007.37 1007.08 1006.97 1006.73 1006.46 1006.45 1006.50 1006.58 1007.13 1007.43 1007.56 1007.85 1008.17 1008.33 1008.45 1008.87 1008.99 1009.18 1009.23 1009.02 1008.94 1009.01 1009.04 1008.98 1008.89 1008.77 1008.62 1008.50 1008.40 1008.39 1008.47 1008.47 1008.47 1008.44 1008.47 1008.48 1008.44 1008.37 1008.24 1008.05
Thickness
5571 5568 5565 5563 5561 5557 5553 5552 5549 5547 5546 5544 5542 5541 5539 5540 5540 5538 5541 5542 5541 5550 5561 5565 5566 5563 5563 5564 5568 5580 5591 5601 5607 5614 5622 5636 5637 5655 5662 5685 5682 5679 5669 5667 5659 5658 5679 5712 5705 5690 5701 5708 5711 5707
5560 5557 5555 5553 5551 5548 5545 5543 5540 5539 5536 5537 5536 5534 5533 5534 5533 5532 5531 5537 5538 5542 5552 5561 5566 5568 5568 5566 5568 5568 5573 5583 5594 5602 5615 5622 5634 5647 5646 5660 5690 5684 5693 5679 5684 5684 5707 5715 5718 5715 5709 5706 5703 5700
5549 5546 5544 5543 5541 5539 5536 5533 5531 5529 5528 5529 5530 5529 5528 5528 5528 5525 5525 5529 5533 5540 5553 5551 5566 5576 5574 5575 5574 5565 5568 5584 5592 5596 5603 5619 5632 5645 5647 5661 5686 5693 5698 5688 5693 5702 5706 5711 5712 5707 5704 5701 5697 5695
5538 5535 5534 5533 5532 5530 5528 5525 5523 5523 5523 5523 5524 5523 5522 5522 5523 5521 5520 5524 5524 5532 5543 5554 5573 5573 5580 5578 5577 5577 5580 5583 5586 5591 5594 5607 5626 5643 5637 5652 5670 5685 5692 5686 5682 5695 5700 5706 5703 5700 5694 5692 5691 5688
5528 5526 5525 5525 5523 5521 5520 5519 5517 5517 5517 5516 5517 5517 5517 5516 5517 5517 5519 5522 5523 5522 5536 5548 5565 5578 5580 5579 5580 5578 5572 5568 5572 5578 5585 5601 5624 5635 5643 5652 5663 5679 5679 5681 5682 5703 5705 5707 5701 5697 5689 5685 5684 5682
5520 5518 5518 5517 5516 5514 5513 5513 5512 5512 5510 5510 5511 5512 5512 5512 5512 5513 5519 5521 5522 5520 5524 5543 5558 5571 5576 5577 5577 5572 5566 5564 5564 5572 5582 5600 5617 5622 5621 5637 5670 5679 5688 5689 5700 5702 5701 5702 5697 5693 5686 5682 5680 5678
5514 5512 5510 5509 5510 5509 5508 5508 5507 5506 5505 5507 5508 5508 5508 5507 5507 5505 5513 5516 5517 5516 5525 5538 5551 5568 5575 5576 5576 5567 5564 5563 5564 5568 5579 5591 5609 5620 5623 5632 5669 5683 5689 5692 5691 5694 5690 5694 5689 5686 5685 5682 5678 5677
5508 5506 5505 5504 5504 5503 5503 5502 5502 5502 5502 5503 5504 5505 5505 5504 5504 5507 5516 5519 5515 5513 5520 5528 5549 5557 5573 5574 5568 5573 5564 5562 5564 5569 5580 5588 5604 5608 5614 5651 5665 5674 5683 5679 5680 5691 5699 5694 5685 5679 5680 5680 5675 5671
5504 5502 5501 5500 5500 5499 5498 5497 5498 5498 5499 5500 5502 5502 5501 5501 5504 5512 5515 5516 5515 5515 5523 5532 5540 5553 5562 5568 5572 5572 5571 5561 5566 5569 5577 5583 5589 5600 5627 5641 5652 5662 5662 5671 5669 5681 5687 5684 5678 5675 5674 5674 5671 5668
5499 5498 5498 5497 5496 5495 5494 5495 5495 5495 5496 5497 5498 5499 5505 5507 5510 5510 5512 5515 5513 5518 5520 5526 5535 5540 5548 5565 5572 5570 5572 5572 5568 5575 5576 5579 5595 5623 5641 5642 5645 5651 5662 5663 5667 5668 5670 5668 5669 5673 5674 5674 5673 5670
5494 5494 5494 5493 5493 5492 5491 5492 5492 5493 5494 5494 5496 5501 5506 5508 5511 5510 5515 5515 5520 5522 5525 5536 5536 5538 5549 5558 5566 5568 5569 5569 5573 5573 5580 5581 5595 5620 5645 5646 5650 5649 5654 5661 5668 5670 5676 5680 5673 5670 5671 5672 5671 5668
5491 5492 5492 5491 5491 5489 5489 5490 5491 5490 5493 5493 5494 5496 5499 5504 5510 5511 5520 5523 5524 5534 5538 5539 5548 5538 5545 5552 5562 5565 5573 5572 5574 5583 5586 5589 5609 5632 5641 5648 5651 5651 5655 5660 5668 5671 5677 5675 5673 5675 5676 5674 5673 5669
5487 5489 5490 5489 5487 5487 5487 5489 5489 5489 5491 5491 5493 5497 5503 5501 5509 5515 5522 5530 5533 5540 5546 5548 5552 5552 5549 5554 5562 5563 5568 5572 5576 5576 5584 5597 5619 5624 5632 5642 5647 5651 5656 5662 5666 5672 5677 5678 5675 5674 5675 5675 5672 5667
5482 5483 5484 5484 5484 5484 5485 5485 5485 5485 5485 5489 5494 5490 5504 5513 5518 5529 5528 5532 5538 5539 5540 5545 5552 5556 5560 5561 5561 5568 5570 5574 5578 5579 5587 5601 5603 5612 5623 5631 5640 5649 5652 5658 5664 5669 5673 5675 5677 5678 5677 5675 5672 5667
5477 5478 5479 5481 5481 5481 5480 5480 5480 5481 5483 5486 5494 5499 5508 5515 5519 5529 5532 5536 5541 5543 5544 5547 5553 5555 5560 5563 5560 5563 5570 5571 5577 5588 5592 5594 5600 5606 5616 5628 5638 5642 5648 5651 5660 5665 5670 5671 5673 5675 5676 5676 5675 5670
5472 5474 5476 5477 5477 5477 5476 5476 5477 5477 5480 5484 5491 5503 5506 5509 5519 5528 5533 5537 5542 5546 5545 5547 5553 5556 5559 5558 5562 5569 5576 5583 5587 5588 5593 5598 5603 5605 5611 5619 5625 5636 5647 5651 5654 5661 5666 5668 5669 5673 5671 5671 5671 5671
5468 5470 5473 5474 5474 5473 5472 5473 5474 5476 5481 5489 5494 5498 5506 5507 5513 5521 5526 5538 5543 5544 5551 5554 5558 5562 5556 5561 5568 5576 5579 5585 5591 5593 5596 5597 5602 5606 5610 5616 5626 5633 5634 5640 5646 5651 5657 5660 5662 5665 5664 5666 5669 5670
5464 5467 5469 5470 5469 5470 5470 5471 5472 5478 5486 5492 5493 5502 5505 5511 5519 5524 5535 5543 5544 5547 5544 5557 5559 5562 5563 5568 5571 5574 5582 5586 5592 5596 5598 5600 5604 5609 5613 5621 5627 5631 5628 5632 5639 5647 5653 5657 5657 5659 5664 5667 5665 5666
5459 5461 5463 5464 5466 5468 5470 5471 5471 5480 5490 5492 5497 5501 5508 5518 5527 5538 5544 5548 5549 5551 5553 5555 5559 5557 5561 5563 5570 5578 5582 5585 5589 5593 5596 5603 5604 5607 5612 5615 5617 5621 5627 5634 5640 5645 5647 5651 5658 5661 5661 5661 5665 5665
5455 5457 5459 5461 5461 5467 5471 5474 5473 5476 5489 5493 5498 5506 5513 5525 5536 5543 5546 5548 5547 5550 5554 5559 5561 5562 5568 5577 5578 5580 5584 5586 5588 5591 5597 5603 5605 5607 5610 5613 5618 5621 5625 5630 5634 5634 5637 5643 5649 5655 5658 5660 5661 5662
5450 5455 5456 5458 5460 5462 5469 5476 5480 5484 5495 5501 5509 5512 5524 5531 5538 5545 5548 5548 5548 5552 5555 5560 5563 5570 5574 5582 5585 5586 5588 5589 5590 5592 5596 5598 5604 5604 5605 5608 5611 5612 5616 5620 5625 5629 5629 5635 5644 5647 5650 5653 5654 5655
5448 5451 5454 5454 5460 5465 5468 5472 5476 5484 5490 5505 5509 5519 5528 5536 5543 5547 5546 5553 5554 5565 5566 5569 5574 5580 5581 5583 5586 5590 5592 5593 5596 5596 5593 5595 5601 5602 5603 5603 5605 5606 5609 5613 5616 5619 5624 5628 5632 5636 5641 5643 5641 5643
5445 5450 5454 5456 5461 5465 5473 5473 5481 5494 5505 5514 5519 5528 5534 5540 5545 5546 5554 5557 5564 5572 5576 5578 5582 5585 5587 5593 5594 5595 5596 5598 5598 5597 5597 5598 5598 5599 5599 5601 5602 5603 5606 5609 5610 5611 5614 5616 5620 5622 5626 5629 5630 5629
5445 5451 5458 5462 5464 5468 5477 5482 5496 5504 5511 5517 5525 5538 5545 5547 5550 5554 5557 5563 5571 5575 5578 5583 5584 5587 5591 5594 5595 5596 5596 5595 5595 5596 5594 5596 5597 5597 5598 5600 5599 5600 5603 5604 5606 5609 5611 5612 5609 5615 5615 5617 5619 5618
5443 5452 5450 5456 5470 5476 5483 5500 5509 5512 5523 5530 5537 5541 5543 5544 5550 5560 5562 5567 5573 5577 5580 5582 5585 5588 5591 5593 5593 5593 5595 5595 5595 5593 5593 5594 5595 5598 5597 5596 5595 5595 5596 5599 5602 5605 5608 5609 5609 5608 5608 5608 5610 5609
5448 5460 5457 5478 5484 5486 5505 5514 5523 5526 5530 5535 5541 5546 5549 5550 5556 5562 5566 5570 5574 5577 5582 5583 5585 5587 5589 5588 5591 5592 5591 5592 5594 5593 5593 5594 5594 5592 5591 5591 5592 5594 5593 5594 5598 5601 5602 5602 5602 5602 5604 5601 5599 5602
5456 5469 5472 5476 5484 5492 5503 5515 5521 5528 5534 5541 5543 5549 5552 5555 5560 5567 5570 5574 5577 5581 5584 5584 5585 5586 5588 5589 5589 5590 5591 5593 5594 5594 5593 5593 5592 5590 5589 5590 5591 5591 5591 5593 5596 5598 5597 5597 5597 5596 5595 5593 5591 5591
5468 5475 5482 5496 5495 5503 5514 5524 5530 5536 5541 5544 5547 5556 5558 5564 5568 5572 5574 5580 5581 5582 5581 5582 5584 5587 5587 5589 5588 5589 5589 5590 5592 5590 5589 5588 5587 5587 5588 5588 5588 5585 5588 5587 5588 5592 5592 5591 5590 5588 5587 5586 5584 5583
5476 5488 5496 5507 5514 5519 5526 5529 5537 5540 5542 5552 5560 5564 5568 5573 5579 5580 5581 5583 5582 5582 5581 5583 5585 5587 5586 5587 5589 5590 5589 5589 5590 5585 5579 5578 5580 5585 5581 5581 5584 5585 5586 5587 5581 5581 5584 5583 5582 5582 5580 5577 5574 5572
5495 5500 5511 5521 5526 5535 5540 5540 5545 5549 5551 5557 5562 5569 5576 5579 5580 5581 5582 5582 5581 5580 5581 5583 5582 5582 5579 5583 5580 5580 5580 5582 5582 5579 5574 5573 5571 5572 5575 5577 5578 5578 5578 5577 5577 5576 5573 5574 5571 5570 5568 5565 5564 5563
5512 5517 5522 5528 5536 5544 5545 5547 5551 5554 5559 5564 5570 5571 5573 5574 5578 5577 5579 5579 5579 5578 5578 5577 5575 5573 5572 5572 5572 5573 5570 5567 5567 5567 5566 5564 5563 5565 5566 5567 5568 5567 5567 5566 5564 5563 5560 5557 5556 5555 5554 5552 5550 5546
5524 5528 5532 5534 5545 5552 5555 5557 5559 5560 5563 5566 5567 5571 5571 5575 5571 5575 5578 5578 5577 5575 5573 5572 5572 5570 5567 5566 5565 5564 5562 5559 5558 5558 5558 5557 5556 5555 5555 5555 5555 5554 5553 5550 5547 5544 5542 5539 5535 5532 5529 5527 5525 5524
5536 5538 5541 5546 5555 5558 5557 5560 5562 5565 5566 5566 5565 5564 5563 5567 5570 5574 5576 5577 5579 5578 5573 5570 5568 5565 5564 5563 5560 5556 5554 5551 5548 5548 5547 5546 5544 5544 5544 5542 5541 5539 5536 5532 5529 5525 5521 5518 5515 5511 5508 5506 5505 5504